DOUGLAS Weather Reports


time (UTC)temp
C
wind
direction
speed
KPH
gust
KPH
rain 1hr
cm
rain 24hr
cm
rain mn
cm
humidity
%
barometer
mb
20260505052003 9 240 6.4 14.5 0.00 0.00 0.00
20260505051003 9 235 4.8 11.3 0.00 0.00 0.00
20260505041003 9 251 6.4 12.9 0.00 0.00 0.00
20260505040003 9 217 1.6 14.5 0.00 0.00 0.00
20260505035002 10 220 1.6 9.7 0.00 0.00 0.00
20260505034003 9 232 3.2 12.9 0.00 0.00 0.00
20260505033003 10 252 3.2 14.5 0.00 0.00 0.00
20260505032003 10 214 3.2 12.9 0.00 0.00 0.00
20260505031003 10 233 6.4 16.1 0.00 0.00 0.00
20260505030003 10 199 3.2 16.1 0.00 0.00 0.00
20260505025003 10 245 6.4 14.5 0.00 0.00 0.00
20260505024003 10 119 3.2 12.9 0.00 0.00 0.00
20260505023004 10 201 1.6 6.4 0.00 0.00 0.00
20260505022003 10 192 1.6 9.7 0.00 0.00 0.00
20260505021003 11 195 1.6 14.5 0.00 0.00 0.00
20260505020003 11 200 3.2 11.3 0.00 0.00 0.00 98
20260505015002 11 135 0.0 12.9 0.00 0.00 0.00 98
20260505014003 11 220 3.2 17.7 0.00 0.00 0.00 98
20260505013003 11 212 3.2 12.9 0.00 0.00 0.00 95
20260505012003 11 234 3.2 19.3 0.00 0.00 0.00 94
20260505011003 13 234 1.6 11.3 0.00 0.00 0.00 88
20260505010004 13 237 4.8 19.3 0.00 0.00 0.00 84
20260505005002 13 183 1.6 9.7 0.00 0.00 0.00 85
20260505004003 14 148 1.6 8.0 0.00 0.00 0.00 82
20260505003003 14 210 1.6 17.7 0.00 0.00 0.00 84
20260505002003 13 202 4.8 14.5 0.00 0.00 0.00 83
20260505001003 14 192 3.2 14.5 0.00 0.00 0.00 81
20260505000004 14 246 3.2 16.1 0.00 0.00 0.00 81
20260504235002 14 192 4.8 17.7 0.00 0.00 0.00 83
20260504234002 15 249 3.2 12.9 0.00 0.00 0.00 81
20260504233003 15 241 3.2 12.9 0.00 0.00 0.00 79
20260504232003 14 203 4.8 22.5 0.00 0.00 0.00 82
20260504231003 15 207 3.2 16.1 0.00 0.00 0.00 80
20260504230004 15 156 3.2 19.3 0.00 0.00 0.00 78
20260504225003 15 206 4.8 17.7 0.00 0.00 0.00 78
20260504224002 16 210 6.4 14.5 0.00 0.00 0.00 77
20260504223003 17 166 1.6 12.9 0.00 0.00 0.00 73
20260504222003 17 256 3.2 9.7 0.00 0.00 0.00 73
20260504221003 16 224 1.6 16.1 0.00 0.00 0.00 74
20260504220004 17 157 1.6 14.5 0.00 0.00 0.00 72
20260504215003 17 195 1.6 11.3 0.00 0.00 0.00 71
20260504214003 16 223 3.2 12.9 0.00 0.00 0.00 74
20260504213003 17 231 1.6 14.5 0.00 0.00 0.00 71
20260504212003 17 148 3.2 14.5 0.00 0.00 0.00 73
20260504211003 17 135 3.2 11.3 0.00 0.00 0.00 69
20260504210004 17 244 3.2 9.7 0.00 0.00 0.00 71
20260504205003 18 101 1.6 11.3 0.00 0.00 0.00 70
20260504204004 17 132 3.2 14.5 0.00 0.00 0.00 72
20260504203003 17 252 4.8 8.0 0.00 0.00 0.00 73
20260504202002 16 229 3.2 9.7 0.00 0.00 0.00 73
20260504201002 17 206 1.6 8.0 0.00 0.00 0.00 71
20260504200003 16 158 1.6 6.4 0.00 0.00 0.00 73
20260504195003 16 157 0.0 11.3 0.00 0.00 0.00 74
20260504194003 15 269 6.4 16.1 0.00 0.00 0.00 79
20260504193003 15 259 4.8 16.1 0.00 0.00 0.00 79
20260504192003 15 268 3.2 12.9 0.00 0.00 0.00 80
20260504191003 15 256 4.8 11.3 0.00 0.00 0.00 79
20260504190003 15 107 3.2 11.3 0.00 0.00 0.00 79
20260504185002 14 250 3.2 11.3 0.00 0.00 0.00 86
20260504184003 14 191 0.0 11.3 0.00 0.00 0.00 87
20260504183003 13 247 3.2 16.1 0.00 0.00 0.00 89
20260504182003 12 244 1.6 9.7 0.00 0.00 0.00 92
20260504181003 12 227 3.2 8.0 0.00 0.00 0.00 95
20260504180003 11 259 1.6 6.4 0.00 0.00 0.00 97
20260504175003 11 105 0.0 9.7 0.00 0.00 0.00
20260504174003 11 236 3.2 9.7 0.00 0.00 0.00
20260504173003 10 239 4.8 12.9 0.00 0.00 0.00
20260504172003 10 254 1.6 9.7 0.00 0.00 0.00
20260504171003 10 244 1.6 9.7 0.00 0.00 0.00
20260504151003 9 224 0.0 6.4 0.00 0.00 0.00 100
20260504141003 9 231 3.2 12.9 0.00 0.00 0.00
20260504082003 10 261 4.8 17.7 0.00 0.00 0.00
20260504081002 10 282 3.2 9.7 0.00 0.00 0.00